Location: Unspecified
(40.7945°N, 0.0000°E)
Time: 06:09:48
(UTC+00:00)

Explorer 7 - Pass Details

Date: 22 January 2021
Orbit: 484 x 677 km, 50.3° (Epoch: 07 March)

Event Time Altitude Azimuth Distance (km) Brightness Sun altitude
Rises 07:38:46 0° 287° (WNW) 2,628 9.6 2.6°
Reaches altitude 10° 07:41:18 10° 303° (WNW) 1,772 8.8 3.0°
Maximum altitude 07:44:29 22° 355° (N) 1,219 8.3 3.6°
Drops below altitude 10° 07:47:50 10° 48° (NE) 1,864 9.8 4.1°
Sets 07:50:35 0° 63° (ENE) 2,805 10.9 4.6°
